Weather History for Birmingham, United Kingdom

Change the Weather History Date:

Thursday, January 24, 2013

  Actual Average Record
Temperature  
Mean Temperature 28 °F -  
Max Temperature 33 °F 43 °F 51 °F (1999)
Min Temperature 23 °F 32 °F 23 °F (2013)
Degree Days  
Heating Degree Days 36    
Moisture  
Dew Point 27 °F    
Average Humidity 84    
Maximum Humidity 100    
Minimum Humidity 69    
Precipitation  
Precipitation 0.00 in 0.07 in - ()
Sea Level Pressure  
Sea Level Pressure 30.03 in    
Wind  
Wind Speed 4 mph ()    
Max Wind Speed 7 mph    
Max Gust Speed 16 mph    
Visibility 5.0 miles    
Events Snow    
Averages and records for this station are not official NWS values.
T = Trace of Precipitation, MM = Missing Value Source: Averaged Metar Reports

Daily Weather History Graph

Daily Weather History Graph

Search for Another Location

Airport:

Trip Planner

Search our weather history database for the weather conditions in past years. The results will help you decide how hot, cold, wet, or windy it might be!

Date:

Astronomy

Jan. 24, 2013 Rise Set
Actual Time 8:00 AM GMT 4:38 PM GMT
Civil Twilight 7:21 AM GMT 5:17 PM GMT
Nautical Twilight 6:39 AM GMT 5:59 PM GMT
Astronomical Twilight 5:59 AM GMT 6:39 PM GMT
Moon 2:22 PM GMT (1/24) 5:52 AM GMT (1/24)
Length of Visible Light 9h 55m
Length of Day
8h 38m
Waxing Gibbous, 93% of the Moon is Illuminated
Jan 24
Waxing Gibbous
Jan 27
Full
Feb 3
Last Quarter
Feb 10
New
Feb 17
First Quarter

Hourly Weather History & Observations

Time (GMT) Temp. Windchill Dew Point Humidity Pressure Visibility Wind Dir Wind Speed Gust Speed Precip Events Conditions
12:20 AM 32.0 °F 26.4 °F 28.4 °F 87% 29.86 in 3.7 mi NNE 5.8 mph - N/A Snow Light Snow
12:50 AM 32.0 °F 26.4 °F 28.4 °F 87% 29.86 in 3.7 mi NNE 5.8 mph - N/A Snow Light Snow
1:20 AM 32.0 °F 26.4 °F 28.4 °F 87% 29.86 in 4.3 mi NE 5.8 mph - N/A   Mostly Cloudy
1:50 AM 32.0 °F 27.5 °F 28.4 °F 87% 29.86 in 3.7 mi ENE 4.6 mph - N/A   Overcast
2:20 AM 32.0 °F 27.5 °F 28.4 °F 87% 29.89 in 3.7 mi NE 4.6 mph - N/A Snow Snow Grains
2:50 AM 32.0 °F 27.5 °F 28.4 °F 87% 29.89 in 3.7 mi NE 4.6 mph - N/A   Overcast
3:50 AM 32.0 °F 28.7 °F 28.4 °F 87% 29.92 in 3.1 mi NNE 3.5 mph - N/A   Mostly Cloudy
4:20 AM 32.0 °F 28.7 °F 28.4 °F 87% 29.92 in 3.1 mi North 3.5 mph - N/A   Overcast
4:50 AM 32.0 °F 27.5 °F 28.4 °F 87% 29.92 in 3.1 mi NNE 4.6 mph - N/A   Overcast
5:20 AM 30.2 °F 25.4 °F 28.4 °F 93% 29.95 in 3.7 mi North 4.6 mph - N/A   Overcast
6:20 AM 30.2 °F 25.4 °F 28.4 °F 93% 29.95 in 3.7 mi North 4.6 mph - N/A   Mostly Cloudy
6:50 AM 30.2 °F 26.7 °F 28.4 °F 93% 29.98 in - Variable 3.5 mph - N/A   Overcast
7:20 AM 30.2 °F 26.7 °F 28.4 °F 93% 29.98 in - NNE 3.5 mph - N/A   Overcast
7:50 AM 30.2 °F - 28.4 °F 93% 30.01 in 2.2 mi Variable 2.3 mph - N/A   Overcast
8:20 AM 30.2 °F 25.4 °F 28.4 °F 93% 30.01 in - North 4.6 mph 16.1 mph N/A   Haze
8:50 AM 30.2 °F 25.4 °F 30.2 °F 100% 30.04 in - North 4.6 mph - N/A   Overcast
9:20 AM 30.2 °F 26.7 °F 30.2 °F 100% 30.04 in 2.5 mi Variable 3.5 mph - N/A   Haze
9:50 AM 32.0 °F 28.7 °F 30.2 °F 93% 30.04 in 2.5 mi Variable 3.5 mph - N/A   Haze
10:20 AM 32.0 °F - 30.2 °F 93% 30.04 in 3.1 mi Variable 2.3 mph - N/A   Haze
10:50 AM 32.0 °F 28.7 °F 30.2 °F 93% 30.06 in - Variable 3.5 mph - N/A   Haze
11:20 AM 32.0 °F 28.7 °F 30.2 °F 93% 30.06 in - Variable 3.5 mph - N/A   Haze
11:50 AM 33.8 °F 29.6 °F 30.2 °F 87% 30.04 in 3.7 mi ENE 4.6 mph - N/A   Overcast
12:20 PM 33.8 °F - 28.4 °F 81% 30.06 in 5.6 mi Variable 2.3 mph - N/A   Mostly Cloudy
12:50 PM 33.8 °F 27.7 °F 26.6 °F 75% 30.06 in 6.2 mi East 6.9 mph - N/A   Mostly Cloudy
1:20 PM 33.8 °F 28.6 °F 26.6 °F 75% 30.04 in 6.2 mi East 5.8 mph - N/A   Mostly Cloudy
1:50 PM 33.8 °F 29.6 °F 26.6 °F 75% 30.04 in 6.2 mi SE 4.6 mph - N/A   Mostly Cloudy
2:20 PM 33.8 °F - 26.6 °F 75% 30.06 in 6.2 mi South 2.3 mph - N/A   Overcast
2:50 PM 33.8 °F 29.6 °F 24.8 °F 70% 30.09 in 6.2 mi South 4.6 mph - N/A   Mostly Cloudy
3:20 PM 33.8 °F 29.6 °F 24.8 °F 70% 30.09 in 6.2 mi SSE 4.6 mph - N/A   Mostly Cloudy
3:50 PM 33.8 °F 28.6 °F 26.6 °F 75% 30.09 in 6.2 mi SSE 5.8 mph - N/A   Overcast
4:20 PM 33.8 °F - 24.8 °F 70% 30.09 in 6.2 mi South 2.3 mph - N/A   Overcast
4:50 PM 32.0 °F 28.7 °F 24.8 °F 75% 30.09 in 6.2 mi South 3.5 mph - N/A   Overcast
5:20 PM 32.0 °F 28.7 °F 24.8 °F 75% 30.09 in 6.2 mi South 3.5 mph - N/A   Overcast
5:50 PM 32.0 °F 28.7 °F 24.8 °F 75% 30.09 in 6.2 mi SSW 3.5 mph - N/A   Mostly Cloudy
6:20 PM 32.0 °F 28.7 °F 24.8 °F 75% 30.12 in 6.2 mi Variable 3.5 mph - N/A   Mostly Cloudy
6:50 PM 32.0 °F - 23.0 °F 69% 30.12 in 6.2 mi Variable 2.3 mph - N/A   Mostly Cloudy
7:20 PM 30.2 °F - 24.8 °F 80% 30.12 in 6.2 mi SSW 2.3 mph - N/A   Mostly Cloudy
7:50 PM 30.2 °F 25.4 °F 24.8 °F 80% 30.12 in 6.2 mi South 4.6 mph - N/A   Mostly Cloudy
8:20 PM 32.0 °F 27.5 °F 23.0 °F 69% 30.12 in 6.2 mi South 4.6 mph - N/A   Mostly Cloudy
8:50 PM 30.2 °F 25.4 °F 23.0 °F 75% 30.09 in 6.2 mi South 4.6 mph - N/A   Mostly Cloudy
9:20 PM 26.6 °F 20.0 °F 23.0 °F 86% 30.09 in 6.2 mi SE 5.8 mph - N/A   Scattered Clouds
9:50 PM 28.4 °F 23.3 °F 23.0 °F 80% 30.09 in 6.2 mi SSE 4.6 mph - N/A   Scattered Clouds
10:20 PM 24.8 °F 19.1 °F 21.2 °F 86% 30.09 in 6.2 mi SSE 4.6 mph - N/A   Scattered Clouds
10:50 PM 26.6 °F 20.0 °F 23.0 °F 86% 30.09 in 6.2 mi SSE 5.8 mph - N/A   Mostly Cloudy
11:20 PM 24.8 °F 17.9 °F 23.0 °F 93% 30.09 in 6.2 mi SSE 5.8 mph - N/A   Mostly Cloudy
11:50 PM 23.0 °F 14.7 °F 21.2 °F 93% 30.09 in 6.2 mi SSE 6.9 mph - N/A   Mostly Cloudy